• MPC Preparation (Info)

  • MPEC 2014-M74 : 2014 MJ27

    The following Minor Planet Electronic Circular may be linked-to from your own Web pages, but must not otherwise be redistributed electronically.

    A form allowing access to any MPEC is at the bottom of this page.


    Read MPEC 2014-M73 Read MPEC 2014-M75


    M.P.E.C. 2014-M74                                Issued 2014 June 30, 14:07 UT
    
         The Minor Planet Electronic Circulars contain information on unusual
             minor planets and routine data on comets.  They are published
       on behalf of Commission 20 of the International Astronomical Union by the
              Minor Planet Center, Smithsonian Astrophysical Observatory,
                              Cambridge, MA 02138, U.S.A.
    
                 Prepared using the Tamkin Foundation Computer Network
    
                                  MPC@CFA.HARVARD.EDU
                URL https://www.minorplanetcenter.net/    ISSN 1523-6714
    
                                       2014 MJ27
    
    Observations:
         K14M27J* C2014 06 27.51806 21 35 26.151-21 11 47.82         20.7 wLEM074F51
         K14M27J  C2014 06 27.52976 21 35 26.582-21 10 56.78         20.6 wLEM074F51
         K14M27J  C2014 06 27.55311 21 35 27.415-21 09 14.66         20.8 wLEM074F51
         K14M27J KC2014 06 28.37746 21 36 18.26 -20 09 16.6          19.7 RoEM074291
         K14M27J KC2014 06 28.37903 21 36 18.34 -20 09 09.7          19.8 RoEM074291
         K14M27J KC2014 06 28.38059 21 36 18.38 -20 09 03.2          20.6 RoEM074291
         K14M27J _C2014 06 28.49162621 36 25.154-20 00 50.39         19.8 RtEM074568
         K14M27J _C2014 06 28.49336521 36 25.208-20 00 43.00         20.4 RtEM074568
         K14M27J |C2014 06 30.26208 21 37 54.69 -17 53 39.2          20.5 VuEM074807
         K14M27J |C2014 06 30.26673 21 37 54.78 -17 53 20.0          20.5 VuEM074807
         K14M27J |C2014 06 30.27136 21 37 54.88 -17 53 00.4          20.6 VuEM074807
    
    Observer details:
    291 LPL/Spacewatch II.  Observer R. A. Mastaler.  1.8-m f/2.7 reflector + CCD.
    568 Mauna Kea.  Observers R. J. Wainscoat, L. Wells.  Measurers M. Micheli,
        R. J. Wainscoat.  3.6-m Canada-France-Hawaii Telescope + CCD.
    807 Cerro Tololo.  Observers T. Linder, R. Holmes.  Measurers T. Linder,
        R. Holmes, C. Smith.  0.41-m f/11 Ritchey-Chretien + CCD.
    F51 Pan-STARRS 1, Haleakala.  Observers N. Primak, A. Schultz, T. Goggia,
        M. Willman.  1.8-m Ritchey-Chretien + CCD.
    
    Orbital elements:
    2014 MJ27                                                Earth MOID = 0.0967 AU
    Epoch 2014 May 23.0 TT = JDT 2456800.5                  MPC
    M 350.58678              (2000.0)            P               Q
    n   0.46054927     Peri.  339.39650     -0.07528594     +0.98943460
    a   1.6606776      Node   286.12360     -0.89587681     -0.12167700
    e   0.3339858      Incl.    7.41026     -0.43787757     +0.07882817
    P   2.14           H   23.1           G   0.15           U   6
    Residuals in seconds of arc
    140627 F51  0.1+  0.1+    140628 291  0.3+  0.2+    140630 807  0.2+  0.1+
    140627 F51  0.2+  0.1+    140628 291  0.1+  0.0     140630 807  0.0   0.1-
    140627 F51  0.2+  0.1+    140628 568  0.2+  0.0     140630 807  0.0   0.2+
    140628 291  0.1-  0.1+    140628 568  0.2+  0.0
    
    Ephemeris:
    2014 MJ27                a,e,i = 1.66, 0.33, 7                   q = 1.1060
    Date    TT    R. A. (2000) Decl.     Delta      r     Elong.  Phase     V
    2014 05 31    20 03 53.8 -53 03 22   0.1469  1.1123   129.1    45.0    20.9
    ...
    2014 06 15    21 11 15.0 -37 04 29   0.1304  1.1063   131.4    43.5    20.6
    ...
    2014 06 23    21 29 21.2 -26 50 39   0.1298  1.1105   134.1    41.1    20.5
    ...
    2014 06 29    21 36 51.1 -19 23 36   0.1330  1.1170   136.6    38.7    20.5
    2014 06 30    21 37 41.1 -18 12 25   0.1338  1.1183   137.1    38.3    20.5
    2014 07 01    21 38 24.7 -17 02 28   0.1347  1.1197   137.5    37.8    20.5
    ...
    2014 07 07    21 40 48.0 -10 32 39   0.1419  1.1298   140.6    34.9    20.6
    ...
    2014 07 15    21 39 48.9 -03 26 08   0.1556  1.1472   144.9    30.6    20.7
    ...
    2014 07 30    21 30 15.7 +04 52 51   0.1932  1.1905   152.9    22.8    21.0
    
    A. U. Tomatic                (C) Copyright 2014 MPC           M.P.E.C. 2014-M74
    

    Read MPEC 2014-M73 Read MPEC 2014-M75


    MPEC number:

    Enter an MPEC number in one of the following forms:

    • 1997-B01 (the full form)
    • J97B01 (the packed version of the full form)
    • B01 (the abbreviated form)